Flag for Norway Weather past 2 weeks in Kopervik, Norway

Now
59 °F

Sunny.


Feels Like: 57 °F
Forecast: 55 / 60 °F
Wind: 10 mph from Northeast

Location: Haugesund / Karmoy

Current Time: Sep 3, 2015 at 10:09:55 PM

Latest Report: Sep 3, 2015 at 9:20 PM


Visibility: 10 mi

Pressure: 29.83 "Hg

Humidity: 59%

Dew point: 45 °F

Location of KopervikLocation

Historic Weather in Kopervik — Graph

°F

Kopervik temperature yesterday

Maximum temperature yesterday: 64 °F (at 2:50 PM)
Minimum temperature yesterday: 54 °F (at 5:20 AM)
Average temperature yesterday: 59 °F

Past Weeks' High & Low Weather Summary

 TemperatureHumidityPressure
High77 °F (Aug 23, 1:20 PM)100% (Aug 25, 11:20 PM)30.24 "Hg (Aug 25, 11:20 PM)
Low50 °F (Aug 31, 6:20 AM)36% (Aug 23, 1:50 PM)29.47 "Hg (Aug 26, 12:50 AM)
Average62 °F74%29.86 "Hg
* Reported Aug 19 8:20 PM — Sep 3 8:50 PM, Kopervik, Weather by CustomWeather, © 2015

Note: Actual official high and low records may vary slightly from our data, if they occured in-between our weather recording intervals... More about our weather records

Advertising

Kopervik weather history for previous 24 hours

 ConditionsComfort  
Time TempWeatherWind HumidityBarometerVisibility
8:50 PM
Thu, Sep 3
61 °FSunny.10 mph55%29.80 "Hg10 mi
8:20 PM63 °FSunny.13 mph52%29.80 "Hg10 mi
7:57 PM63 °FSunny.13 mph52%29.80 "Hg10 mi
7:20 PM64 °FBroken clouds.15 mph52%29.77 "HgN/A
6:50 PM64 °FBroken clouds.13 mph52%29.77 "HgN/A
6:20 PM64 °FScattered clouds.14 mph52%29.77 "HgN/A
5:50 PM64 °FScattered clouds.17 mph49%29.77 "HgN/A
5:20 PM64 °FScattered clouds.18 mph52%29.74 "HgN/A
4:50 PM66 °FScattered clouds.20 mph49%29.74 "HgN/A
4:20 PM68 °FScattered clouds.16 mph46%29.74 "HgN/A
3:50 PM66 °FScattered clouds.18 mph49%29.74 "HgN/A
3:20 PM68 °FScattered clouds.18 mph46%29.74 "HgN/A
2:50 PM66 °FScattered clouds.21 mph49%29.71 "HgN/A
2:20 PM64 °FScattered clouds.21 mph49%29.71 "HgN/A
1:50 PM66 °FScattered clouds.20 mph49%29.71 "HgN/A
1:20 PM66 °FScattered clouds.17 mph49%29.71 "HgN/A
12:50 PM66 °FScattered clouds.17 mph49%29.71 "HgN/A
12:20 PM66 °FScattered clouds.18 mph49%29.68 "HgN/A
11:50 AM66 °FScattered clouds.18 mph52%29.68 "HgN/A
11:20 AM66 °FScattered clouds.13 mph52%29.68 "HgN/A
10:50 AM66 °FScattered clouds.12 mph52%29.68 "HgN/A
10:20 AM64 °FScattered clouds.6 mph52%29.68 "HgN/A
9:50 AM64 °FPassing clouds.10 mph56%29.65 "HgN/A
9:20 AM61 °FScattered clouds.13 mph63%29.65 "HgN/A
8:50 AM61 °FBroken clouds.16 mph63%29.65 "HgN/A
8:20 AM59 °FBroken clouds.13 mph68%29.65 "HgN/A
7:50 AM59 °FBroken clouds.15 mph68%29.62 "HgN/A
7:20 AM59 °FPassing clouds.15 mph68%29.62 "HgN/A
6:50 AM59 °FPassing clouds.10 mph63%29.62 "HgN/A
6:20 AM57 °FPassing clouds.8 mph67%29.62 "HgN/A
5:50 AM59 °FPassing clouds.10 mph63%29.62 "HgN/A
5:20 AM61 °FPassing clouds.13 mph59%29.59 "HgN/A
4:50 AM59 °FPassing clouds.13 mph68%29.59 "HgN/A
4:20 AM59 °FPassing clouds.12 mph63%29.59 "HgN/A
3:50 AM59 °FPassing clouds.13 mph68%29.59 "HgN/A
3:20 AM57 °FCool.7 mph72%29.59 "HgN/A
2:50 AM57 °FPassing clouds.9 mph67%29.59 "HgN/A
2:20 AM59 °FPassing clouds.10 mph68%29.59 "HgN/A
1:50 AM59 °FPartly cloudy.10 mph68%29.59 "HgN/A
1:20 AM59 °FPassing clouds.12 mph68%29.59 "HgN/A
12:50 AM59 °FCool.14 mph68%29.59 "HgN/A
11:50 PM
Wed, Sep 2
61 °FCool.12 mph63%29.56 "HgN/A
11:20 PM61 °FPassing clouds.8 mph63%29.56 "HgN/A
10:50 PM61 °FPassing clouds.12 mph63%29.56 "HgN/A
10:20 PM61 °FClear.9 mph63%29.56 "Hg10 mi
Weather by CustomWeather, © 2015

See weather overviewHow to use our weather pages